WetterOnline ( https://www.wetteronline.de )

Wetter aktuell Pic du Midi de Bigorre

Aktuelles Wetter: Tarbes/Ossun (364m)

6-stündlich | Neueste Meldungen
Ortszeit Temperatur Wetter
Di, 21.05. 2:00 8.9° C -
Mo, 20.05. 20:00 14.3° C bedeckt
Mo, 20.05. 14:00 15.3° C bedeckt
Mo, 20.05. 8:00 11.4° C bedeckt
Mo, 20.05. 2:00 10.6° C bedeckt
So, 19.05. 20:00 13.8° C leichter Regen
So, 19.05. 14:00 17.8° C wolkig
So, 19.05. 8:00 12.4° C bedeckt
Ortszeit Temperatur Wetter
Di, 21.05. 6:00 7.9° C -
Di, 21.05. 5:00 7.9° C -
Di, 21.05. 4:00 7.8° C -
Di, 21.05. 3:00 8.0° C -
Di, 21.05. 2:00 8.9° C -
Di, 21.05. 1:00 8.7° C -
Di, 21.05. 0:00 10.1° C -
Ortszeit Relative Feuchte Sichtweite
Di, 21.05. 2:00 91% 45 km
Mo, 20.05. 20:00 72% 35 km
Mo, 20.05. 14:00 71% 60 km
Mo, 20.05. 8:00 93% 55 km
Mo, 20.05. 2:00 97% 40 km
So, 19.05. 20:00 93% 12 km
So, 19.05. 14:00 58% 19 km
So, 19.05. 8:00 92% 45 km
Ortszeit Relative Feuchte Sichtweite
Di, 21.05. 6:00 90% 40 km
Di, 21.05. 5:00 93% 35 km
Di, 21.05. 4:00 94% 45 km
Di, 21.05. 3:00 95% 35 km
Di, 21.05. 2:00 91% 45 km
Di, 21.05. 1:00 89% 30 km
Di, 21.05. 0:00 90% 35 km
Ortszeit Niederschlagsmenge Niederschlagsart
Di, 21.05. 2:00 0.0 l/m2 in 6 Std. -
Mo, 20.05. 20:00 0.4 l/m2 in 12 Std. -
Mo, 20.05. 14:00 0.0 l/m2 in 6 Std. -
Mo, 20.05. 8:00 1 l/m2 in 12 Std. -
Mo, 20.05. 2:00 1 l/m2 in 6 Std. -
So, 19.05. 20:00 8 l/m2 in 12 Std. -
So, 19.05. 14:00 7 l/m2 in 6 Std. -
So, 19.05. 8:00 6 l/m2 in 12 Std. -
Ortszeit Niederschlagsmenge Niederschlagsart
Di, 21.05. 6:00 0.0 l/m2 in 1 Std. -
Di, 21.05. 5:00 keine Meldung -
Di, 21.05. 4:00 0.0 l/m2 in 1 Std. -
Di, 21.05. 3:00 0.0 l/m2 in 1 Std. -
Di, 21.05. 2:00 keine Meldung -
Di, 21.05. 1:00 0.0 l/m2 in 1 Std. -
Di, 21.05. 0:00 0.0 l/m2 in 1 Std. -
Ortszeit Stärke Spitze Richtung
km/h Bft. km/h Grad Sektor
Di, 21.05. 2:00 9 2 19 230° SW
Mo, 20.05. 20:00 19 3 41 270° W
Mo, 20.05. 14:00 22 4 35 310° NW
Mo, 20.05. 8:00 11 2 24 270° W
Mo, 20.05. 2:00 6 1 9 200° S
So, 19.05. 20:00 6 1 11 280° W
So, 19.05. 14:00 4 1 20 150° SO
So, 19.05. 8:00 15 3 33 300° NW
Ortszeit Stärke Spitze Richtung
km/h Bft. km/h Grad Sektor
Di, 21.05. 6:00 9 2 17 170° S
Di, 21.05. 5:00 15 3 19 180° S
Di, 21.05. 4:00 9 2 17 190° S
Di, 21.05. 3:00 11 2 17 190° S
Di, 21.05. 2:00 9 2 19 230° SW
Di, 21.05. 1:00 7 2 15 220° SW
Di, 21.05. 0:00 11 2 19 240° SW
Ortszeit Untergrenze Bedeckung Gattung
total tief tief mittel hoch
Di, 21.05. 2:00 - - - - - -
Mo, 20.05. 20:00 - 8/8 - - - -
Mo, 20.05. 14:00 - 8/8 - - - -
Mo, 20.05. 8:00 - 8/8 - - - -
Mo, 20.05. 2:00 - 8/8 - - - -
So, 19.05. 20:00 - 8/8 - - - -
So, 19.05. 14:00 - 6/8 - - - -
So, 19.05. 8:00 - 8/8 - - - -
Ortszeit Bedeckungsgrad in Achtel und Wolkenuntergrenze
Di, 21.05. 6:00 -
Di, 21.05. 5:00 -
Di, 21.05. 4:00 -
Di, 21.05. 3:00 -
Di, 21.05. 2:00 -
Di, 21.05. 1:00 -
Di, 21.05. 0:00 -
Ortszeit Luftdruck NN (hPa) Tendenz (hPa in 3 Std.)
Di, 21.05. 2:00 1014 - 0,5
Mo, 20.05. 20:00 1013 + 0,7
Mo, 20.05. 14:00 1012 - 0,1
Mo, 20.05. 8:00 1012 + 0,6
Mo, 20.05. 2:00 1012 - 0,8
So, 19.05. 20:00 1011 + 0,3
So, 19.05. 14:00 1011 - 1,4
So, 19.05. 8:00 1012 - 0,4
Ortszeit Luftdruck NN (hPa) Tendenz (hPa in 3 Std.)
Di, 21.05. 6:00 1014 - 0,2
Di, 21.05. 5:00 1014 - 0,4
Di, 21.05. 4:00 1014 - 0,5
Di, 21.05. 3:00 1014 - 0,4
Di, 21.05. 2:00 1014 - 0,5
Di, 21.05. 1:00 1014 + 0,3
Di, 21.05. 0:00 1014 + 0,7
Ortszeit Schneehöhe (cm)
Di, 21.05. 2:00 -
Mo, 20.05. 20:00 0
Mo, 20.05. 14:00 0
Mo, 20.05. 8:00 0
Mo, 20.05. 2:00 0
So, 19.05. 20:00 0
So, 19.05. 14:00 0
So, 19.05. 8:00 0
Ortszeit Schneehöhe (cm)
Di, 21.05. 6:00 -
Di, 21.05. 5:00 -
Di, 21.05. 4:00 -
Di, 21.05. 3:00 -
Di, 21.05. 2:00 -
Di, 21.05. 1:00 -
Di, 21.05. 0:00 -
Link zu dieser Seite / Seite empfehlen

Das Wetter in ...